M I D A S
Marine Information and Data Acquisition System
Tripno 351 of the Zeeleeuw from 2002-10-29 09:26:45 to 2002-10-29 16:50:00
Back to CruiseResearch ActivitiesStationsMapUnderway DataData graphs

EquipmentUnitsComment
TimeDGPSUTC
LatitudeDGPSDM.mWGS84
LongitudeDGPSDM.mWGS84
TemperatureSBE03/SBE38deg celciusITS90
ConductivitySBE21S/mITS90
SalinitySBE21 Practical Salinity Units
ChlorophylAChelsea fluorimeterg/lCalibrated in Aceton
Missing or incorrect values are displayed as -999
Sea surface data collected by the RV Zeeleeuw from 2002-10-29 09:26:45 to 2002-10-29 16:50:00
                                                                                    Next 1000 lines
Time Latitude Longitude Temperature Conductivity Salinity ChlorophylA
2002-10-29 09:26:52 51°13.685 2°55.838 14.309762 0.027447 0.16949  
2002-10-29 09:26:57 51°13.686 2°55.831 14.309762 0.027447 0.16949  
2002-10-29 09:27:02 51°13.687 2°55.825 14.31363 0.027343 0.168831  
2002-10-29 09:27:07 51°13.688 2°55.818 14.311652 0.027343 0.168828  
2002-10-29 09:27:12 51°13.688 2°55.812 14.31864 0.027343 0.168822  
2002-10-29 09:27:17 51°13.689 2°55.806 14.321189 0.027239 0.168163  
2002-10-29 09:27:21 51°13.689 2°55.801 14.322111 0.027239 0.168154  
2002-10-29 09:27:26 51°13.689 2°55.795 14.322111 0.027239 0.168154  
2002-10-29 09:27:31 51°13.689 2°55.789 14.320529 0.027239 0.168148  
2002-10-29 09:27:36 51°13.689 2°55.784 14.325363 0.027135 0.16749  
2002-10-29 09:27:41 51°13.689 2°55.778 14.328571 0.027135 0.167483  
2002-10-29 09:27:46 51°13.689 2°55.773 14.327692 0.027135 0.16748  
2002-10-29 09:27:51 51°13.689 2°55.771 14.318156 0.027031 0.166819  
2002-10-29 09:27:56 51°13.69 2°55.77 14.318156 0.027031 0.166819  
2002-10-29 09:28:01 51°13.691 2°55.771 14.296488 0.027031 0.16681  
2002-10-29 09:28:06 51°13.692 2°55.774 14.323605 0.027031 0.166804  
2002-10-29 09:28:10 51°13.694 2°55.778 14.334898 0.027031 0.166801  
2002-10-29 09:28:15 51°13.698 2°55.782 14.350229 0.026927 0.166146  
2002-10-29 09:28:21 51°13.705 2°55.787 14.353392 0.026927 0.166137  
2002-10-29 09:28:26 51°13.711 2°55.789 14.353392 0.026927 0.166137  
2002-10-29 09:28:30 51°13.717 2°55.79 14.357476 0.026927 0.166131  
2002-10-29 09:28:36 51°13.726 2°55.788 14.357388 0.026927 0.166122  
2002-10-29 09:28:41 51°13.734 2°55.784 14.361341 0.026927 0.166115  
2002-10-29 09:28:46 51°13.741 2°55.778 14.340213 0.026823 0.165461  
2002-10-29 09:28:51 51°13.749 2°55.767 14.359365 0.026823 0.165455  
2002-10-29 09:28:56 51°13.755 2°55.755 14.359365 0.026823 0.165455  
2002-10-29 09:29:01 51°13.761 2°55.741 14.29662 0.026719 0.164795  
2002-10-29 09:29:06 51°13.768 2°55.727 14.313981 0.026719 0.164786  
2002-10-29 09:29:10 51°13.773 2°55.716 14.341619 0.026719 0.16477  
2002-10-29 09:29:16 51°13.781 2°55.7 14.351108 0.026615 0.164113  
2002-10-29 09:29:21 51°13.787 2°55.686 14.346364 0.026615 0.164107  
2002-10-29 09:29:26 51°13.794 2°55.673 14.346364 0.026615 0.164107  
2002-10-29 09:29:31 51°13.802 2°55.662 14.365469 0.026615 0.164104  
2002-10-29 09:29:36 51°13.811 2°55.651 14.475079 0.026511 0.163436  
2002-10-29 09:29:41 51°13.82 2°55.641 14.511942 0.026511 0.163415  
2002-10-29 09:29:46 51°13.829 2°55.631 14.50905 0.026511 0.163412  
2002-10-29 09:29:51 51°13.838 2°55.622 14.504492 0.026407 0.162761  
2002-10-29 09:29:56 51°13.847 2°55.613 14.504492 0.026407 0.162761  
2002-10-29 09:30:01 51°13.857 2°55.605 14.48902 0.026407 0.162755  
2002-10-29 09:30:06 51°13.867 2°55.598 14.508348 0.026407 0.162752  
2002-10-29 09:30:11 51°13.877 2°55.59 14.496954 0.026303 0.162102  
2002-10-29 09:30:16 51°13.887 2°55.583 14.497173 0.026303 0.162099  
2002-10-29 09:30:21 51°13.897 2°55.576 14.505456 0.026303 0.16209  
2002-10-29 09:30:26 51°13.907 2°55.568 14.505456 0.026303 0.16209  
2002-10-29 09:30:31 51°13.917 2°55.561 14.502827 0.026199 0.161434  
2002-10-29 09:30:36 51°13.928 2°55.554 14.496954 0.026199 0.161434  
2002-10-29 09:30:41 51°13.938 2°55.547 14.49577 0.026199 0.161428  
2002-10-29 09:30:46 51°13.948 2°55.54 14.494061 0.026199 0.161425  
2002-10-29 09:30:51 51°13.959 2°55.533 14.497217 0.026095 0.16077  
2002-10-29 09:30:56 51°13.969 2°55.525 14.497217 0.026095 0.16077  
2002-10-29 09:31:01 51°13.98 2°55.518 14.498356 0.026095 0.160764  
2002-10-29 09:31:06 51°13.99 2°55.511 14.504229 0.025991 0.160105  
2002-10-29 09:31:11 51°14 2°55.503 14.503353 0.025991 0.160102  
2002-10-29 09:31:16 51°14.011 2°55.496 14.509795 0.025991 0.160099  
2002-10-29 09:31:21 51°14.021 2°55.49 14.513782 0.025991 0.160091  
2002-10-29 09:31:26 51°14.032 2°55.483 14.513782 0.025991 0.160091  
2002-10-29 09:31:31 51°14.042 2°55.477 14.514921 0.025887 0.159435  
2002-10-29 09:31:36 51°14.052 2°55.471 14.513914 0.025887 0.159432  
2002-10-29 09:31:41 51°14.061 2°55.465 14.518996 0.025887 0.159424  
2002-10-29 09:31:46 51°14.071 2°55.459 14.519916 0.025784 0.158769  
2002-10-29 09:31:50 51°14.078 2°55.454 14.52272 0.025784 0.158763  
2002-10-29 09:31:56 51°14.089 2°55.447 14.52272 0.025784 0.158763  
2002-10-29 09:32:01 51°14.097 2°55.442 14.524648 0.025784 0.15876  
2002-10-29 09:32:06 51°14.106 2°55.436 14.528284 0.02568 0.158105  
2002-10-29 09:32:11 51°14.114 2°55.43 14.530694 0.02568 0.158096  
2002-10-29 09:32:14 51°14.119 2°55.427 14.534549 0.02568 0.158091  
2002-10-29 09:32:21 51°14.13 2°55.419 -999 0.02568 0.158082  
2002-10-29 09:32:26 51°14.138 2°55.414 -999 0.02568 0.158082  
2002-10-29 09:32:31 51°14.146 2°55.408 -999 0.025576 0.15743  
2002-10-29 09:32:36 51°14.153 2°55.402 -999 0.025576 0.157424  
2002-10-29 09:32:41 51°14.16 2°55.396 -999 0.025576 0.157422  
2002-10-29 09:32:46 51°14.168 2°55.389 -999 0.025472 0.156767  
2002-10-29 09:32:51 51°14.175 2°55.383 -999 0.025472 0.156759  
2002-10-29 09:32:56 51°14.181 2°55.376 -999 0.025472 0.156759  
2002-10-29 09:33:01 51°14.188 2°55.37 -999 0.025472 0.156753  
2002-10-29 09:33:06 51°14.195 2°55.363 -999 0.025472 0.156747  
2002-10-29 09:33:10 51°14.2 2°55.357 -999 0.025368 0.156093  
2002-10-29 09:33:16 51°14.207 2°55.348 -999 0.025368 0.156087  
2002-10-29 09:33:21 51°14.213 2°55.341 -999 0.025368 0.156082  
2002-10-29 09:33:26 51°14.219 2°55.334 -999 0.025368 0.156082  
2002-10-29 09:33:31 51°14.225 2°55.326 -999 0.025264 0.155428  
2002-10-29 09:33:36 51°14.23 2°55.318 -999 0.025264 0.155419  
2002-10-29 09:33:41 51°14.236 2°55.31 -999 0.025264 0.155417  
2002-10-29 09:33:46 51°14.241 2°55.302 -999 0.02516 0.154763  
2002-10-29 09:33:50 51°14.245 2°55.295 -999 0.02516 0.154757  
2002-10-29 09:33:56 51°14.251 2°55.285 -999 0.02516 0.154757  
2002-10-29 09:34:02 51°14.256 2°55.275 -999 0.02516 0.154752  
2002-10-29 09:34:06 51°14.26 2°55.269 -999 0.02516 0.154743  
2002-10-29 09:34:10 51°14.264 2°55.262 -999 0.025056 0.154093  
2002-10-29 09:34:16 51°14.27 2°55.252 -999 0.025056 0.154084  
2002-10-29 09:34:21 51°14.274 2°55.244 -999 0.025056 0.154082  
2002-10-29 09:34:26 51°14.279 2°55.236 -999 0.025056 0.154082  
2002-10-29 09:34:31 51°14.283 2°55.227 -999 0.024952 0.153426  
2002-10-29 09:34:36 51°14.287 2°55.219 -999 0.024952 0.153423  
2002-10-29 09:34:42 51°14.293 2°55.209 -999 0.024952 0.153414  
2002-10-29 09:34:46 51°14.296 2°55.202 -999 0.024952 0.153409  
2002-10-29 09:34:50 51°14.299 2°55.194 -999 0.024848 0.152756  
2002-10-29 09:34:56 51°14.304 2°55.183 -999 0.024848 0.152756  
2002-10-29 09:35:01 51°14.309 2°55.173 -999 0.024848 0.152751  
2002-10-29 09:35:06 51°14.314 2°55.163 -999 0.024848 0.152742  
2002-10-29 09:35:10 51°14.318 2°55.155 -999 0.024848 0.152737  
2002-10-29 09:35:16 51°14.324 2°55.141 -999 0.024744 0.152084  
2002-10-29 09:35:21 51°14.33 2°55.13 -999 0.024744 0.152076  
2002-10-29 09:35:26 51°14.336 2°55.118 -999 0.024744 0.152076  
2002-10-29 09:35:30 51°14.341 2°55.107 -999 0.024744 0.15207  
2002-10-29 09:35:36 51°14.35 2°55.092 -999 0.02464 0.151418  
2002-10-29 09:35:41 51°14.358 2°55.078 -999 0.02464 0.15141  
2002-10-29 09:35:46 51°14.367 2°55.064 -999 0.02464 0.151404  
2002-10-29 09:35:50 51°14.376 2°55.053 -999 0.02464 0.15139  
2002-10-29 09:35:54 51°14.385 2°55.041 -999 0.02464 0.15139  
2002-10-29 09:36:01 51°14.401 2°55.021 -999 0.024536 0.150739  
2002-10-29 09:36:06 51°14.414 2°55.007 -999 0.024536 0.150733  
2002-10-29 09:36:10 51°14.425 2°54.996 -999 0.024536 0.150725  
2002-10-29 09:36:16 51°14.442 2°54.978 -999 0.024536 0.150722  
2002-10-29 09:36:21 51°14.457 2°54.963 -999 0.024536 0.150714  
2002-10-29 09:36:26 51°14.471 2°54.948 -999 0.024536 0.150714  
2002-10-29 09:36:31 51°14.486 2°54.933 -999 0.024432 0.150065  
2002-10-29 09:36:36 51°14.501 2°54.918 -999 0.024432 0.150057  
2002-10-29 09:36:41 51°14.516 2°54.904 -999 0.024432 0.150049  
2002-10-29 09:36:46 51°14.532 2°54.891 -999 0.024432 0.150046  
2002-10-29 09:36:50 51°14.545 2°54.882 -999 0.024328 0.149381  
2002-10-29 09:36:54 51°14.559 2°54.876 -999 0.024328 0.149381  
2002-10-29 09:37:01 51°14.583 2°54.866 -999 0.024328 0.14937  
2002-10-29 09:37:06 51°14.6 2°54.859 -999 0.024328 0.149362  
2002-10-29 09:37:10 51°14.614 2°54.854 -999 0.024328 0.149359  
2002-10-29 09:37:16 51°14.635 2°54.846 -999 0.024224 0.148711  
2002-10-29 09:37:21 51°14.652 2°54.84 -999 0.024224 0.148706  
2002-10-29 09:37:26 51°14.67 2°54.833 -999 0.024224 0.148706  
2002-10-29 09:37:30 51°14.684 2°54.827 -999 0.024224 0.1487  
2002-10-29 09:37:36 51°14.705 2°54.819 -999 0.024121 0.14805  
2002-10-29 09:37:41 51°14.722 2°54.812 -999 0.024121 0.148047  
2002-10-29 09:37:45 51°14.736 2°54.806 -999 0.024121 0.148039  
2002-10-29 09:37:50 51°14.754 2°54.8 -999 0.024121 0.148031  
2002-10-29 09:37:56 51°14.775 2°54.791 -999 0.024121 0.148031  
2002-10-29 09:38:01 51°14.792 2°54.784 -999 0.024121 0.148028  
2002-10-29 09:38:06 51°14.81 2°54.777 -999 0.024017 0.147378  
2002-10-29 09:38:11 51°14.828 2°54.77 -999 0.024017 0.147372  
2002-10-29 09:38:16 51°14.846 2°54.764 -999 0.024017 0.147367  
2002-10-29 09:38:21 51°14.864 2°54.757 -999 0.024017 0.147359  
2002-10-29 09:38:26 51°14.881 2°54.75 -999 0.024017 0.147359  
2002-10-29 09:38:31 51°14.899 2°54.743 -999 0.023913 0.146709  
2002-10-29 09:38:36 51°14.917 2°54.736 -999 0.023913 0.146703  
2002-10-29 09:38:41 51°14.934 2°54.729 -999 0.023913 0.146695  
2002-10-29 09:38:46 51°14.952 2°54.721 -999 0.023913 0.146693  
2002-10-29 09:38:51 51°14.97 2°54.714 31.558142 0.023913 0.146685  
2002-10-29 09:38:56 51°14.987 2°54.707 31.558142 0.023913 0.146685  
2002-10-29 09:39:01 51°15.005 2°54.7 31.730977 0.023809 0.146035  
2002-10-29 09:39:06 51°15.023 2°54.693 30.906124 0.023809 0.146032  
2002-10-29 09:39:10 51°15.037 2°54.688 31.256953 0.023809 0.146024  
2002-10-29 09:39:16 51°15.058 2°54.68 31.712382 0.023809 0.146019  
2002-10-29 09:39:21 51°15.075 2°54.674 31.643796 0.023705 0.14537  
2002-10-29 09:39:26 51°15.093 2°54.667 31.643796 0.023705 0.14537  
2002-10-29 09:39:30 51°15.107 2°54.663 30.632168 0.023705 0.145364  
2002-10-29 09:39:36 51°15.128 2°54.655 31.492878 0.023705 0.145356  
2002-10-29 09:39:41 51°15.145 2°54.649 31.688917 0.023705 0.145356  
2002-10-29 09:39:46 51°15.163 2°54.643 31.265109 0.023705 0.145351  
2002-10-29 09:39:51 51°15.18 2°54.636 32.002615 0.023601 0.144699  
2002-10-29 09:39:56 51°15.198 2°54.63 32.002615 0.023601 0.144699  
2002-10-29 09:40:01 51°15.215 2°54.624 30.459808 0.023601 0.144694  
2002-10-29 09:40:06 51°15.233 2°54.617 31.404041 0.023601 0.144689  
2002-10-29 09:40:11 51°15.251 2°54.61 31.725388 0.023601 0.144686  
2002-10-29 09:40:16 51°15.269 2°54.602 30.279745 0.023601 0.144678  
2002-10-29 09:40:21 51°15.286 2°54.595 31.168641 0.023497 0.144029  
2002-10-29 09:40:26 51°15.304 2°54.587 31.168641 0.023497 0.144029  
2002-10-29 09:40:31 51°15.322 2°54.58 30.762754 0.023497 0.144027  
2002-10-29 09:40:36 51°15.34 2°54.573 31.857154 0.023497 0.144022  
2002-10-29 09:40:41 51°15.358 2°54.566 30.855061 0.023497 0.144014  
2002-10-29 09:40:46 51°15.376 2°54.56 30.660822 0.023497 0.144011  
2002-10-29 09:40:51 51°15.394 2°54.553 30.717782 0.023393 0.143365  
2002-10-29 09:40:56 51°15.412 2°54.546 30.717782 0.023393 0.143365  
2002-10-29 09:41:01 51°15.43 2°54.539 30.433008 0.023393 0.14336  
2002-10-29 09:41:06 51°15.448 2°54.532 31.601171 0.023393 0.143355  
2002-10-29 09:41:11 51°15.466 2°54.524 30.117188 0.023393 0.14335  
2002-10-29 09:41:16 51°15.484 2°54.517 31.244458 0.023289 0.142701  
2002-10-29 09:41:21 51°15.502 2°54.509 31.112816 0.023289 0.142699  
2002-10-29 09:41:26 51°15.52 2°54.502 31.112816 0.023289 0.142699  
2002-10-29 09:41:31 51°15.539 2°54.495 30.703765 0.023289 0.142693  
2002-10-29 09:41:36 51°15.557 2°54.487 30.325714 0.023289 0.142691  
2002-10-29 09:41:41 51°15.574 2°54.48 30.427184 0.023289 0.142683  
2002-10-29 09:41:46 51°15.593 2°54.473 31.277497 0.023185 0.142038  
2002-10-29 09:41:51 51°15.611 2°54.465 30.227873 0.023185 0.142032  
2002-10-29 09:41:56 51°15.629 2°54.459 30.227873 0.023185 0.142032  
2002-10-29 09:42:01 51°15.647 2°54.451 30.294263 0.023185 0.142025  
2002-10-29 09:42:06 51°15.665 2°54.444 30.25355 0.023185 0.142025  
2002-10-29 09:42:11 51°15.683 2°54.437 29.917484 0.023081 0.141374  
2002-10-29 09:42:16 51°15.702 2°54.43 30.235929 0.023081 0.141372  
2002-10-29 09:42:21 51°15.72 2°54.423 30.409603 0.023081 0.141369  
2002-10-29 09:42:26 51°15.738 2°54.415 30.409603 0.023081 0.141369  
2002-10-29 09:42:31 51°15.756 2°54.408 31.749497 0.023081 0.141362  
2002-10-29 09:42:36 51°15.774 2°54.4 31.354419 0.023081 0.141359  
2002-10-29 09:42:41 51°15.792 2°54.392 30.608124 0.022977 0.140712  
2002-10-29 09:42:46 51°15.811 2°54.385 31.05173 0.022977 0.140709  
2002-10-29 09:42:51 51°15.829 2°54.377 30.115814 0.022977 0.140704  
2002-10-29 09:42:56 51°15.848 2°54.37 30.115814 0.022977 0.140704  
2002-10-29 09:43:01 51°15.866 2°54.363 30.224109 0.022977 0.140699  
2002-10-29 09:43:06 51°15.885 2°54.356 29.814375 0.022873 0.140054  
2002-10-29 09:43:11 51°15.903 2°54.348 30.403567 0.022873 0.140052  
2002-10-29 09:43:16 51°15.922 2°54.341 30.027755 0.022873 0.140044  
2002-10-29 09:43:21 51°15.941 2°54.333 31.462631 0.022873 0.140039  
2002-10-29 09:43:26 51°15.959 2°54.325 31.462631 0.022873 0.140039  
2002-10-29 09:43:31 51°15.978 2°54.318 30.266842 0.022769 0.139394  
2002-10-29 09:43:36 51°15.996 2°54.31 30.284772 0.022769 0.139392  
2002-10-29 09:43:41 51°16.015 2°54.303 29.659039 0.022769 0.139387  
2002-10-29 09:43:46 51°16.034 2°54.296 31.046962 0.022769 0.139384  
2002-10-29 09:43:51 51°16.052 2°54.29 31.067389 0.022769 0.139377  
2002-10-29 09:43:56 51°16.071 2°54.286 31.067389 0.022769 0.139377  
2002-10-29 09:44:01 51°16.088 2°54.285 30.68331 0.022665 0.13873  
2002-10-29 09:44:06 51°16.104 2°54.285 29.661485 0.022665 0.138723  
2002-10-29 09:44:11 51°16.12 2°54.288 32.441322 0.022665 0.138718  
2002-10-29 09:44:16 51°16.134 2°54.293 30.119654 0.022665 0.138715  
2002-10-29 09:44:21 51°16.148 2°54.299 30.107605 0.022562 0.138071  
2002-10-29 09:44:26 51°16.161 2°54.305 30.107605 0.022562 0.138071  
2002-10-29 09:44:31 51°16.173 2°54.312 29.634436 0.022562 0.138069  
2002-10-29 09:44:36 51°16.185 2°54.318 29.207724 0.022562 0.138066  
2002-10-29 09:44:41 51°16.196 2°54.325 29.265574 0.022562 0.138061  
2002-10-29 09:44:46 51°16.206 2°54.332 29.990957 0.022562 0.138061  
2002-10-29 09:44:51 51°16.216 2°54.339 29.475639 0.022458 0.137415  
2002-10-29 09:44:56 51°16.225 2°54.345 29.475639 0.022458 0.137415  
2002-10-29 09:45:01 51°16.234 2°54.351 28.830383 0.022458 0.137412  
2002-10-29 09:45:06 51°16.243 2°54.357 29.767669 0.022458 0.137407  
2002-10-29 09:45:11 51°16.251 2°54.363 29.79191 0.022354 0.136766  
2002-10-29 09:45:16 51°16.259 2°54.369 29.363385 0.022354 0.136774  
2002-10-29 09:45:21 51°16.266 2°54.375 29.422573 0.022354 0.136766  
2002-10-29 09:45:26 51°16.274 2°54.38 29.422573 0.022354 0.136766  
2002-10-29 09:45:30 51°16.279 2°54.384 29.582511 0.022354 0.136761  
2002-10-29 09:45:34 51°16.285 2°54.389 29.601774 0.02225 0.136116  
2002-10-29 09:45:41 51°16.294 2°54.396 28.690239 0.02225 0.136113  
2002-10-29 09:45:46 51°16.3 2°54.401 29.203124 0.02225 0.136106  
2002-10-29 09:45:50 51°16.305 2°54.405 28.910113 0.02225 0.136103  
2002-10-29 09:45:56 51°16.313 2°54.411 28.910113 0.02225 0.136103  
2002-10-29 09:46:01 51°16.32 2°54.414 29.598475 0.022146 0.135458  
2002-10-29 09:46:05 51°16.326 2°54.416 30.007118 0.022146 0.135446  
2002-10-29 09:46:10 51°16.334 2°54.416 31.424407 0.022146 0.135438  
2002-10-29 09:46:16 51°16.345 2°54.413 29.850056 0.022146 0.135436  
2002-10-29 09:46:21 51°16.353 2°54.407 31.455604 0.022146 0.135431  
2002-10-29 09:46:26 51°16.361 2°54.399 31.455604 0.022146 0.135431  
2002-10-29 09:46:30 51°16.366 2°54.391 30.973562 0.022146 0.135431  
2002-10-29 09:46:36 51°16.373 2°54.376 30.617715 0.022146 0.135431  
2002-10-29 09:46:41 51°16.378 2°54.363 30.446164 0.022042 0.134788  
2002-10-29 09:46:46 51°16.381 2°54.349 31.675595 0.022042 0.134786  
2002-10-29 09:46:51 51°16.382 2°54.335 30.41213 0.022042 0.134784  
2002-10-29 09:46:56 51°16.382 2°54.321 30.41213 0.022042 0.134784  
2002-10-29 09:47:01 51°16.381 2°54.307 30.333689 0.022042 0.134779  
2002-10-29 09:47:06 51°16.379 2°54.294 30.591145 0.022042 0.134776  
2002-10-29 09:47:11 51°16.375 2°54.281 31.312916 0.022042 0.134774  
2002-10-29 09:47:16 51°16.37 2°54.27 30.115145 0.021938 0.134131  
2002-10-29 09:47:21 51°16.364 2°54.259 30.04479 0.021938 0.134146  
2002-10-29 09:47:26 51°16.357 2°54.251 30.04479 0.021938 0.134146  
2002-10-29 09:47:31 51°16.349 2°54.244 30.684464 0.021938 0.134141  
2002-10-29 09:47:36 51°16.34 2°54.241 31.34194 0.021938 0.134134  
2002-10-29 09:47:41 51°16.331 2°54.239 30.665089 0.021938 0.134127  
2002-10-29 09:47:46 51°16.322 2°54.24 30.731518 0.021938 0.134122  
2002-10-29 09:47:51 51°16.314 2°54.243 29.373099 0.021938 0.134117  
2002-10-29 09:47:56 51°16.307 2°54.246 29.373099 0.021938 0.134117  
2002-10-29 09:48:01 51°16.301 2°54.25 30.688905 0.021834 0.133468  
2002-10-29 09:48:06 51°16.295 2°54.254 29.58691 0.021834 0.133465  
2002-10-29 09:48:11 51°16.289 2°54.258 29.352816 0.021834 0.133463  
2002-10-29 09:48:16 51°16.284 2°54.262 30.775748 0.021834 0.133456  
2002-10-29 09:48:21 51°16.28 2°54.267 30.001085 0.021834 0.133453  
2002-10-29 09:48:26 51°16.275 2°54.271 30.001085 0.021834 0.133453  
2002-10-29 09:48:31 51°16.271 2°54.275 30.371972 0.021834 0.133449  
2002-10-29 09:48:36 51°16.268 2°54.279 30.657988 0.021834 0.133441  
2002-10-29 09:48:41 51°16.265 2°54.282 31.621416 0.02173 0.132799  
2002-10-29 09:48:46 51°16.262 2°54.285 29.896958 0.02173 0.132795  
2002-10-29 09:48:51 51°16.261 2°54.287 31.438709 0.02173 0.132795  
2002-10-29 09:48:56 51°16.26 2°54.288 31.438709 0.02173 0.132795  
2002-10-29 09:49:01 51°16.26 2°54.287 30.788845 0.02173 0.13279  
2002-10-29 09:49:06 51°16.26 2°54.286 29.791379 0.02173 0.132783  
2002-10-29 09:49:11 51°16.26 2°54.285 29.887241 0.02173 0.132781  
2002-10-29 09:49:16 51°16.26 2°54.283 29.778428 0.02173 0.132778  
2002-10-29 09:49:21 51°16.26 2°54.282 30.135013 0.021626 0.132134  
2002-10-29 09:49:26 51°16.261 2°54.281 30.135013 0.021626 0.132134  
2002-10-29 09:49:31 51°16.261 2°54.279 29.184044 0.021626 0.132132  
2002-10-29 09:49:37 51°16.262 2°54.278 28.591045 0.021626 0.132127  
2002-10-29 09:49:42 51°16.262 2°54.277 29.943443 0.021626 0.132122  
2002-10-29 09:49:47 51°16.263 2°54.276 29.978464 0.021626 0.13212  
2002-10-29 09:49:52 51°16.263 2°54.274 28.750676 0.021626 0.132118  
2002-10-29 09:49:57 51°16.263 2°54.273 28.750676 0.021626 0.132118  
2002-10-29 09:50:02 51°16.263 2°54.272 30.97614 0.021626 0.132115  
2002-10-29 09:50:07 51°16.264 2°54.271 30.301187 0.021626 0.132111  
2002-10-29 09:50:12 51°16.264 2°54.27 30.831157 0.021522 0.131469  
2002-10-29 09:50:16 51°16.264 2°54.269 28.97234 0.021522 0.131467  
2002-10-29 09:50:22 51°16.265 2°54.267 29.750643 0.021522 0.131462  
2002-10-29 09:50:27 51°16.265 2°54.266 29.750643 0.021522 0.131462  
2002-10-29 09:50:32 51°16.266 2°54.265 30.10535 0.021522 0.13146  
2002-10-29 09:50:37 51°16.266 2°54.264 28.892032 0.021522 0.131458  
2002-10-29 09:50:42 51°16.266 2°54.263 29.502602 0.021522 0.131455  
2002-10-29 09:50:46 51°16.266 2°54.262 29.873493 0.021522 0.131453  
2002-10-29 09:50:51 51°16.267 2°54.261 30.169488 0.021418 0.130812  
2002-10-29 09:50:56 51°16.267 2°54.259 30.169488 0.021418 0.130812  
2002-10-29 09:51:01 51°16.267 2°54.258 30.172938 0.021418 0.13081  
2002-10-29 09:51:05 51°16.268 2°54.257 29.450799 0.021418 0.130807  
2002-10-29 09:51:10 51°16.268 2°54.256 28.841026 0.021418 0.130803  
2002-10-29 09:51:16 51°16.269 2°54.255 28.701692 0.021418 0.1308  
2002-10-29 09:51:21 51°16.269 2°54.254 29.726602 0.021418 0.1308  
2002-10-29 09:51:25 51°16.27 2°54.253 29.726602 0.021418 0.1308  
2002-10-29 09:51:31 51°16.27 2°54.252 28.853673 0.021418 0.130798  
2002-10-29 09:51:36 51°16.271 2°54.251 29.460501 0.021418 0.130793  
2002-10-29 09:51:41 51°16.271 2°54.249 29.442304 0.021314 0.130153  
2002-10-29 09:51:46 51°16.272 2°54.248 28.597695 0.021314 0.13015  
2002-10-29 09:51:50 51°16.272 2°54.248 29.302263 0.021314 0.130148  
2002-10-29 09:51:56 51°16.272 2°54.246 29.302263 0.021314 0.130148  
2002-10-29 09:52:01 51°16.272 2°54.245 28.748775 0.021314 0.130146  
2002-10-29 09:52:06 51°16.273 2°54.244 27.587643 0.021314 0.130146  
2002-10-29 09:52:10 51°16.273 2°54.244 26.589185 0.021314 0.130143  
2002-10-29 09:52:16 51°16.274 2°54.242 27.932049 0.021314 0.130139  
2002-10-29 09:52:21 51°16.274 2°54.242 27.174469 0.021314 0.130139  
2002-10-29 09:52:26 51°16.275 2°54.241 27.174469 0.021314 0.130139  
2002-10-29 09:52:31 51°16.275 2°54.239 27.805145 0.021314 0.130136  
2002-10-29 09:52:36 51°16.275 2°54.239 27.984693 0.02121 0.129496  
2002-10-29 09:52:41 51°16.276 2°54.237 28.083753 0.02121 0.129489  
2002-10-29 09:52:46 51°16.276 2°54.237 27.280722 0.02121 0.129489  
2002-10-29 09:52:51 51°16.278 2°54.236 27.743539 0.02121 0.129484  
2002-10-29 09:52:56 51°16.278 2°54.236 27.743539 0.02121 0.129484  
2002-10-29 09:53:01 51°16.278 2°54.236 28.10022 0.02121 0.12948  
2002-10-29 09:53:06 51°16.279 2°54.235 27.529577 0.02121 0.129478  
2002-10-29 09:53:11 51°16.28 2°54.235 27.594129 0.02121 0.129475  
2002-10-29 09:53:16 51°16.281 2°54.235 27.504958 0.02121 0.129475  
2002-10-29 09:53:21 51°16.282 2°54.235 26.486409 0.02121 0.129473  
2002-10-29 09:53:26 51°16.282 2°54.235 26.486409 0.02121 0.129473  
2002-10-29 09:53:31 51°16.284 2°54.236 28.049577 0.021106 0.128833  
2002-10-29 09:53:36 51°16.285 2°54.236 27.606661 0.021106 0.12883  
2002-10-29 09:53:41 51°16.286 2°54.237 28.737186 0.021106 0.128828  
2002-10-29 09:53:46 51°16.287 2°54.238 28.762335 0.021106 0.128826  
2002-10-29 09:53:51 51°16.287 2°54.239 27.73303 0.021106 0.128824  
2002-10-29 09:53:56 51°16.289 2°54.239 27.73303 0.021106 0.128824  
2002-10-29 09:54:01 51°16.29 2°54.24 29.818053 0.021106 0.128821  
2002-10-29 09:54:06 51°16.29 2°54.241 29.854334 0.021106 0.128817  
2002-10-29 09:54:11 51°16.292 2°54.242 28.453838 0.021106 0.128815  
2002-10-29 09:54:16 51°16.293 2°54.244 29.649823 0.021106 0.12881  
2002-10-29 09:54:21 51°16.294 2°54.245 28.816513 0.021003 0.128175  
2002-10-29 09:54:26 51°16.295 2°54.247 28.630796 0.021003 0.12817  
2002-10-29 09:54:31 51°16.296 2°54.248 28.630796 0.021003 0.12817  
2002-10-29 09:54:36 51°16.297 2°54.25 28.94236 0.021003 0.128168  
2002-10-29 09:54:41 51°16.298 2°54.251 28.819488 0.021003 0.128163  
2002-10-29 09:54:46 51°16.299 2°54.253 28.731517 0.021003 0.128163  
2002-10-29 09:54:51 51°16.3 2°54.254 29.40746 0.021003 0.128159  
2002-10-29 09:54:56 51°16.3 2°54.256 29.40746 0.021003 0.128159  
2002-10-29 09:55:01 51°16.301 2°54.258 28.796116 0.021003 0.128154  
2002-10-29 09:55:06 51°16.302 2°54.26 29.674279 0.021003 0.128152  
2002-10-29 09:55:11 51°16.303 2°54.261 29.737862 0.020899 0.127512  
2002-10-29 09:55:16 51°16.303 2°54.263 28.436044 0.020899 0.12751  
2002-10-29 09:55:21 51°16.304 2°54.265 29.352353 0.020899 0.127508  
2002-10-29 09:55:26 51°16.305 2°54.267 29.352353 0.020899 0.127508  
2002-10-29 09:55:31 51°16.305 2°54.269 28.39828 0.020899 0.127503  
2002-10-29 09:55:36 51°16.306 2°54.271 29.563243 0.020899 0.127501  
2002-10-29 09:55:41 51°16.306 2°54.273 28.249092 0.020899 0.127499  
2002-10-29 09:55:46 51°16.307 2°54.275 28.40556 0.020899 0.127494  
2002-10-29 09:55:51 51°16.307 2°54.277 28.993083 0.020899 0.127492  
2002-10-29 09:55:56 51°16.307 2°54.279 28.993083 0.020899 0.127492  
2002-10-29 09:56:01 51°16.308 2°54.281 29.43651 0.020899 0.12749  
2002-10-29 09:56:06 51°16.308 2°54.283 29.089499 0.020899 0.127488  
2002-10-29 09:56:11 51°16.309 2°54.285 28.588168 0.020795 0.126848  
2002-10-29 09:56:16 51°16.308 2°54.287 28.443285 0.020795 0.126844  
2002-10-29 09:56:21 51°16.309 2°54.289 29.041521 0.020795 0.126842  
2002-10-29 09:56:25 51°16.309 2°54.291 29.041521 0.020795 0.126842  
2002-10-29 09:56:30 51°16.309 2°54.293 28.237209 0.020795 0.126839  
2002-10-29 09:56:36 51°16.309 2°54.295 29.035517 0.020795 0.126837  
2002-10-29 09:56:41 51°16.309 2°54.297 15.873789 0.020795 0.12681  
2002-10-29 09:56:45 51°16.309 2°54.298 15.824724 0.020795 0.126743  
2002-10-29 09:56:51 51°16.309 2°54.301 15.947107 0.020795 0.12675  
2002-10-29 09:56:56 51°16.309 2°54.302 15.947107 0.020795 0.12675  
2002-10-29 09:57:01 51°16.309 2°54.304 15.880317 0.020795 0.126757  
2002-10-29 09:57:05 51°16.308 2°54.306 15.801984 0.020691 0.126131  
2002-10-29 09:57:10 51°16.308 2°54.308 15.618367 0.020691 0.126138  
2002-10-29 09:57:16 51°16.308 2°54.31 15.932347 0.020691 0.126143  
2002-10-29 09:57:21 51°16.308 2°54.311 16.07578 0.020691 0.126147  
2002-10-29 09:57:26 51°16.308 2°54.313 16.07578 0.020691 0.126147  
2002-10-29 09:57:31 51°16.307 2°54.315 15.897922 0.020691 0.126151  
2002-10-29 09:57:36 51°16.307 2°54.317 15.7227 0.020691 0.126151  
2002-10-29 09:57:41 51°16.306 2°54.318 15.795707 0.020691 0.126156  
2002-10-29 09:57:46 51°16.306 2°54.32 15.834222 0.020691 0.126154  
2002-10-29 09:57:50 51°16.306 2°54.321 15.872458 0.020691 0.126156  
2002-10-29 09:57:56 51°16.305 2°54.323 15.872458 0.020691 0.126156  
2002-10-29 09:58:01 51°16.304 2°54.324 16.017303 0.020691 0.126156  
2002-10-29 09:58:06 51°16.304 2°54.325 15.877397 0.020587 0.125519  
2002-10-29 09:58:10 51°16.303 2°54.326 15.913076 0.020587 0.125517  
2002-10-29 09:58:16 51°16.303 2°54.328 15.954014 0.020587 0.125517  
2002-10-29 09:58:21 51°16.302 2°54.329 16.029088 0.020587 0.125515  
2002-10-29 09:58:26 51°16.301 2°54.33 16.029088 0.020587 0.125515  
2002-10-29 09:58:31 51°16.301 2°54.332 15.965939 0.020587 0.125515  
2002-10-29 09:58:36 51°16.3 2°54.333 15.970613 0.020587 0.125513  
2002-10-29 09:58:41 51°16.299 2°54.334 15.759148 0.020587 0.125513  
2002-10-29 09:58:46 51°16.299 2°54.335 15.975503 0.020587 0.125513  
2002-10-29 09:58:50 51°16.298 2°54.336 15.839808 0.020587 0.125511  
2002-10-29 09:58:56 51°16.297 2°54.337 15.839808 0.020587 0.125511  
2002-10-29 09:59:01 51°16.296 2°54.338 15.843504 0.020483 0.124877  
2002-10-29 09:59:06 51°16.296 2°54.339 15.987424 0.020483 0.124874  
2002-10-29 09:59:10 51°16.295 2°54.34 15.924922 0.020483 0.124874  
2002-10-29 09:59:16 51°16.294 2°54.341 15.892598 0.020483 0.124874  
2002-10-29 09:59:21 51°16.293 2°54.342 16.001057 0.020483 0.124872  
2002-10-29 09:59:26 51°16.292 2°54.343 16.148667 0.020483 0.124874  
2002-10-29 09:59:31 51°16.291 2°54.344 16.148667 0.020483 0.124874  
2002-10-29 09:59:36 51°16.29 2°54.344 16.078606 0.020483 0.124872  
2002-10-29 09:59:41 51°16.289 2°54.345 15.977304 0.020483 0.124872  
2002-10-29 09:59:46 51°16.287 2°54.345 15.912948 0.020483 0.124872  
2002-10-29 09:59:51 51°16.286 2°54.346 16.125692 0.020483 0.124872  
2002-10-29 09:59:56 51°16.284 2°54.346 16.125692 0.020483 0.124872  
2002-10-29 10:00:01 51°16.283 2°54.346 15.810625 0.020483 0.12487  
2002-10-29 10:00:06 51°16.282 2°54.346 16.02943 0.020379 0.124234  
2002-10-29 10:00:10 51°16.281 2°54.346 16.10318 0.020379 0.124234  
2002-10-29 10:00:16 51°16.279 2°54.346 16.073339 0.020379 0.124236  
2002-10-29 10:00:21 51°16.278 2°54.345 16.010188 0.020379 0.124236  
2002-10-29 10:00:26 51°16.277 2°54.345 16.010188 0.020379 0.124236  
2002-10-29 10:00:30 51°16.276 2°54.345 15.838218 0.020379 0.124234  
2002-10-29 10:00:36 51°16.275 2°54.344 16.151404 0.020379 0.124236  
2002-10-29 10:00:41 51°16.273 2°54.343 15.988538 0.020379 0.124236  
2002-10-29 10:00:46 51°16.272 2°54.343 15.992268 0.020379 0.124232  
2002-10-29 10:00:51 51°16.271 2°54.341 15.85519 0.020379 0.124234  
2002-10-29 10:00:56 51°16.27 2°54.341 15.85519 0.020379 0.124234  
2002-10-29 10:01:01 51°16.269 2°54.339 16.143704 0.020379 0.124234  
2002-10-29 10:01:06 51°16.268 2°54.338 15.970313 0.020379 0.124234  
2002-10-29 10:01:11 51°16.268 2°54.336 16.009459 0.020275 0.123598  
2002-10-29 10:01:16 51°16.267 2°54.335 15.873489 0.020275 0.123598  
2002-10-29 10:01:21 51°16.266 2°54.334 15.946635 0.020275 0.1236  
2002-10-29 10:01:26 51°16.265 2°54.332 15.946635 0.020275 0.1236  
2002-10-29 10:01:30 51°16.265 2°54.331 16.164193 0.020275 0.123598  
2002-10-29 10:01:36 51°16.264 2°54.328 15.852526 0.020275 0.123598  
2002-10-29 10:01:41 51°16.263 2°54.327 15.995956 0.020275 0.1236  
2002-10-29 10:01:45 51°16.263 2°54.325 15.931832 0.020275 0.1236  
2002-10-29 10:01:51 51°16.262 2°54.323 16.145416 0.020275 0.1236  
2002-10-29 10:01:55 51°16.262 2°54.321 16.145416 0.020275 0.1236  
2002-10-29 10:02:01 51°16.262 2°54.319 15.936037 0.020275 0.123598  
2002-10-29 10:02:06 51°16.261 2°54.317 15.837875 0.020275 0.1236  
2002-10-29 10:02:11 51°16.261 2°54.315 16.22639 0.020171 0.122965  
2002-10-29 10:02:16 51°16.261 2°54.313 16.196645 0.020171 0.122962  
2002-10-29 10:02:21 51°16.26 2°54.311 16.098728 0.020171 0.12296  
2002-10-29 10:02:26 51°16.26 2°54.309 16.098728 0.020171 0.12296  
2002-10-29 10:02:30 51°16.26 2°54.307 15.958518 0.020171 0.122962  
2002-10-29 10:02:36 51°16.26 2°54.304 16.001443 0.020171 0.12296  
2002-10-29 10:02:41 51°16.26 2°54.302 16.175183 0.020171 0.12296  
2002-10-29 10:02:46 51°16.26 2°54.3 16.144731 0.020171 0.122958  
2002-10-29 10:02:51 51°16.26 2°54.298 16.222288 0.020171 0.122958  
2002-10-29 10:02:56 51°16.26 2°54.296 16.222288 0.020171 0.122958  
2002-10-29 10:03:01 51°16.26 2°54.293 16.225407 0.020171 0.122958  
2002-10-29 10:03:06 51°16.26 2°54.291 16.123167 0.020171 0.122956  
2002-10-29 10:03:10 51°16.26 2°54.289 16.130099 0.020171 0.122952  
2002-10-29 10:03:16 51°16.26 2°54.286 16.026559 0.020067 0.122318  
2002-10-29 10:03:21 51°16.26 2°54.284 16.242838 0.020067 0.122316  
2002-10-29 10:03:26 51°16.26 2°54.282 16.242838 0.020067 0.122316  
2002-10-29 10:03:30 51°16.26 2°54.28 16.035729 0.020067 0.122314  
2002-10-29 10:03:36 51°16.26 2°54.277 16.081047 0.020067 0.122314  
2002-10-29 10:03:41 51°16.26 2°54.275 16.18506 0.020067 0.122312  
2002-10-29 10:03:46 51°16.26 2°54.272 16.052566 0.020067 0.122312  
2002-10-29 10:03:51 51°16.26 2°54.27 16.12398 0.020067 0.12231  
2002-10-29 10:03:56 51°16.26 2°54.267 16.12398 0.020067 0.12231  
2002-10-29 10:04:01 51°16.26 2°54.265 16.200406 0.020067 0.12231  
2002-10-29 10:04:06 51°16.26 2°54.263 16.238737 0.020067 0.122308  
2002-10-29 10:04:10 51°16.261 2°54.26 16.139982 0.020067 0.122303  
2002-10-29 10:04:16 51°16.26 2°54.258 16.315974 0.020067 0.122303  
2002-10-29 10:04:21 51°16.261 2°54.255 16.107889 0.019963 0.12167  
2002-10-29 10:04:25 51°16.261 2°54.253 16.107889 0.019963 0.12167  
2002-10-29 10:04:30 51°16.261 2°54.251 16.219126 0.019963 0.121692  
2002-10-29 10:04:36 51°16.261 2°54.248 16.328604 0.019963 0.121687  
2002-10-29 10:04:41 51°16.262 2°54.245 16.193524 0.019963 0.121681  
2002-10-29 10:04:46 51°16.261 2°54.243 16.338672 0.019963 0.121677  
2002-10-29 10:04:51 51°16.262 2°54.241 16.376669 0.019963 0.121672  
2002-10-29 10:04:56 51°16.262 2°54.238 16.376669 0.019963 0.121672  
2002-10-29 10:05:01 51°16.262 2°54.236 16.03483 0.019963 0.121668  
2002-10-29 10:05:06 51°16.262 2°54.233 16.421292 0.019963 0.121666  
2002-10-29 10:05:10 51°16.262 2°54.231 16.21481 0.019963 0.121664  
2002-10-29 10:05:16 51°16.263 2°54.228 16.220151 0.019963 0.12166  
2002-10-29 10:05:21 51°16.262 2°54.226 16.192926 0.019859 0.121022  
2002-10-29 10:05:25 51°16.263 2°54.224 16.192926 0.019859 0.121022  
2002-10-29 10:05:30 51°16.263 2°54.222 16.160814 0.019859 0.121022  
2002-10-29 10:05:36 51°16.263 2°54.219 16.05942 0.019859 0.121018  
2002-10-29 10:05:41 51°16.263 2°54.217 16.062889 0.019859 0.121018  
2002-10-29 10:05:46 51°16.263 2°54.214 16.141565 0.019859 0.121014  
2002-10-29 10:05:51 51°16.263 2°54.212 16.213314 0.019859 0.121014  
2002-10-29 10:05:56 51°16.264 2°54.209 16.213314 0.019859 0.121014  
2002-10-29 10:06:01 51°16.264 2°54.207 16.144731 0.019859 0.121012  
2002-10-29 10:06:06 51°16.264 2°54.204 16.287933 0.019859 0.12101  
2002-10-29 10:06:10 51°16.264 2°54.202 16.435095 0.019859 0.121008  
2002-10-29 10:06:16 51°16.264 2°54.2 16.33688 0.019859 0.121006  
2002-10-29 10:06:21 51°16.265 2°54.197 16.235747 0.019859 0.121006  
2002-10-29 10:06:26 51°16.265 2°54.195 16.235747 0.019859 0.121006  
2002-10-29 10:06:30 51°16.265 2°54.193 16.45226 0.019859 0.121003  
2002-10-29 10:06:36 51°16.265 2°54.19 16.250014 0.019755 0.120369  
2002-10-29 10:06:41 51°16.265 2°54.188 16.493302 0.019755 0.120367  
2002-10-29 10:06:45 51°16.265 2°54.186 15.972243 0.019755 0.120367  
2002-10-29 10:06:50 51°16.265 2°54.183 16.399773 0.019755 0.120362  
2002-10-29 10:06:56 51°16.266 2°54.18 16.399773 0.019755 0.120362  
2002-10-29 10:07:01 51°16.266 2°54.178 16.403481 0.019755 0.120362  
2002-10-29 10:07:05 51°16.266 2°54.176 16.36456 0.019755 0.120362  
2002-10-29 10:07:10 51°16.266 2°54.174 16.410299 0.019755 0.120358  
2002-10-29 10:07:16 51°16.266 2°54.171 16.240617 0.019755 0.120356  
2002-10-29 10:07:21 51°16.266 2°54.169 16.108659 0.019755 0.120356  
2002-10-29 10:07:26 51°16.266 2°54.166 16.108659 0.019755 0.120356  
2002-10-29 10:07:30 51°16.267 2°54.164 16.290665 0.019755 0.120354  
2002-10-29 10:07:36 51°16.266 2°54.162 16.288744 0.019755 0.120352  
2002-10-29 10:07:41 51°16.267 2°54.159 16.468314 0.019755 0.120352  
2002-10-29 10:07:46 51°16.267 2°54.157 16.260649 0.019651 0.119715  
2002-10-29 10:07:50 51°16.267 2°54.155 16.265944 0.019651 0.119713  
2002-10-29 10:07:56 51°16.267 2°54.152 16.265944 0.019651 0.119713  
2002-10-29 10:08:01 51°16.267 2°54.15 16.411663 0.019651 0.119713  
2002-10-29 10:08:06 51°16.267 2°54.147 16.343151 0.019651 0.119713  
2002-10-29 10:08:10 51°16.267 2°54.145 16.350188 0.019651 0.119711  
2002-10-29 10:08:16 51°16.267 2°54.143 16.247451 0.019651 0.119711  
2002-10-29 10:08:21 51°16.268 2°54.14 16.358121 0.019651 0.119709  
2002-10-29 10:08:26 51°16.268 2°54.138 16.358121 0.019651 0.119709  
2002-10-29 10:08:31 51°16.268 2°54.134 16.3295 0.019651 0.119707  
2002-10-29 10:08:36 51°16.267 2°54.13 16.362471 0.019651 0.119707  
2002-10-29 10:08:41 51°16.267 2°54.124 16.373173 0.019651 0.119705  
2002-10-29 10:08:46 51°16.265 2°54.117 16.370743 0.019651 0.119703  
2002-10-29 10:08:51 51°16.265 2°54.107 16.241727 0.019651 0.119701  
2002-10-29 10:08:55 51°16.264 2°54.098 16.241727 0.019651 0.119701  
2002-10-29 10:09:01 51°16.265 2°54.081 16.360722 0.019651 0.119692  
2002-10-29 10:09:06 51°16.267 2°54.065 16.35633 0.019548 0.119058  
2002-10-29 10:09:10 51°16.269 2°54.051 16.297196 0.019548 0.119056  
2002-10-29 10:09:16 51°16.275 2°54.027 16.41848 0.019548 0.119054  
2002-10-29 10:09:21 51°16.28 2°54.007 16.426874 0.019548 0.11905  
2002-10-29 10:09:26 51°16.287 2°53.986 16.426874 0.019548 0.11905  
2002-10-29 10:09:30 51°16.293 2°53.969 16.49194 0.019548 0.11905  
2002-10-29 10:09:35 51°16.301 2°53.947 16.378119 0.019548 0.119048  
2002-10-29 10:09:41 51°16.311 2°53.92 16.512026 0.019548 0.119042  
2002-10-29 10:09:45 51°16.32 2°53.903 16.419886 0.019548 0.119031  
2002-10-29 10:09:50 51°16.33 2°53.881 16.814229 0.019548 0.119023  
2002-10-29 10:09:56 51°16.343 2°53.856 16.814229 0.019548 0.119023  
2002-10-29 10:10:01 51°16.354 2°53.834 16.641213 0.019548 0.119021  
2002-10-29 10:10:06 51°16.365 2°53.812 16.624011 0.019548 0.119021  
2002-10-29 10:10:10 51°16.375 2°53.795 16.698099 0.019548 0.119023  
2002-10-29 10:10:16 51°16.389 2°53.769 16.482873 0.019444 0.118387  
2002-10-29 10:10:21 51°16.4 2°53.747 16.670342 0.019444 0.118387  
2002-10-29 10:10:26 51°16.411 2°53.725 16.670342 0.019444 0.118387  
2002-10-29 10:10:31 51°16.422 2°53.703 16.549247 0.019444 0.118391  
2002-10-29 10:10:36 51°16.434 2°53.681 16.491003 0.019444 0.118389  
2002-10-29 10:10:41 51°16.446 2°53.66 16.468101 0.019444 0.118391  
2002-10-29 10:10:46 51°16.457 2°53.637 16.739503 0.019444 0.118393  
2002-10-29 10:10:51 51°16.469 2°53.615 16.461799 0.019444 0.118393  
2002-10-29 10:10:56 51°16.479 2°53.592 16.461799 0.019444 0.118393  
2002-10-29 10:11:01 51°16.491 2°53.57 16.818466 0.019444 0.118393  
2002-10-29 10:11:06 51°16.502 2°53.547 16.545973 0.019444 0.118391  
2002-10-29 10:11:11 51°16.513 2°53.525 16.625625 0.019444 0.118387  
2002-10-29 10:11:16 51°16.524 2°53.502 16.657902 0.019444 0.118387  
2002-10-29 10:11:21 51°16.536 2°53.48 16.560473 0.019444 0.118385  
2002-10-29 10:11:26 51°16.547 2°53.458 16.560473 0.019444 0.118385  
2002-10-29 10:11:30 51°16.556 2°53.44 16.837483 0.019444 0.118387  
2002-10-29 10:11:36 51°16.569 2°53.413 16.499601 0.01934 0.117752  
2002-10-29 10:11:41 51°16.581 2°53.39 16.755447 0.01934 0.11775  
2002-10-29 10:11:46 51°16.593 2°53.369 16.740139 0.01934 0.117743  
2002-10-29 10:11:51 51°16.604 2°53.347 16.760831 0.01934 0.117743  
2002-10-29 10:11:56 51°16.616 2°53.325 16.760831 0.01934 0.117743  
2002-10-29 10:12:01 51°16.627 2°53.303 16.657647 0.01934 0.117741  
2002-10-29 10:12:06 51°16.639 2°53.281 16.8044 0.01934 0.117741  
2002-10-29 10:12:11 51°16.65 2°53.259 16.599028 0.01934 0.117739  
2002-10-29 10:12:16 51°16.662 2°53.237 16.846714 0.01934 0.117737  
2002-10-29 10:12:21 51°16.673 2°53.215 16.613093 0.01934 0.117735  
2002-10-29 10:12:26 51°16.685 2°53.193 16.613093 0.01934 0.117735  
2002-10-29 10:12:31 51°16.696 2°53.171 16.644738 0.01934 0.117733  
2002-10-29 10:12:36 51°16.708 2°53.149 16.757906 0.01934 0.117731  
2002-10-29 10:12:41 51°16.72 2°53.127 16.691946 0.01934 0.117729  
2002-10-29 10:12:46 51°16.731 2°53.105 16.625031 0.01934 0.117725  
2002-10-29 10:12:50 51°16.74 2°53.088 16.638623 0.01934 0.117725  
2002-10-29 10:12:56 51°16.755 2°53.062 16.638623 0.01934 0.117725  
2002-10-29 10:13:01 51°16.767 2°53.041 16.635098 0.019236 0.11709  
2002-10-29 10:13:06 51°16.779 2°53.02 16.94564 0.019236 0.117088  
2002-10-29 10:13:11 51°16.791 2°52.998 16.566681 0.019236 0.117086  
2002-10-29 10:13:16 51°16.802 2°52.977 16.682864 0.019236 0.117084  
2002-10-29 10:13:21 51°16.814 2°52.956 16.619848 0.019236 0.117082  
2002-10-29 10:13:26 51°16.826 2°52.935 16.619848 0.019236 0.117082  
2002-10-29 10:13:30 51°16.835 2°52.919 16.693474 0.019236 0.117078  
2002-10-29 10:13:36 51°16.849 2°52.893 16.827572 0.019236 0.117076  
2002-10-29 10:13:41 51°16.86 2°52.872 16.658879 0.019236 0.117074  
2002-10-29 10:13:46 51°16.871 2°52.851 16.776898 0.019236 0.117069  
2002-10-29 10:13:49 51°16.878 2°52.838 16.787705 0.019236 0.117065  
2002-10-29 10:13:56 51°16.895 2°52.809 16.787705 0.019236 0.117065  
2002-10-29 10:14:01 51°16.907 2°52.788 17.027196 0.019236 0.117065  
2002-10-29 10:14:06 51°16.919 2°52.768 16.834942 0.019236 0.117063  
2002-10-29 10:14:10 51°16.929 2°52.752 16.651788 0.019236 0.117059  
2002-10-29 10:14:16 51°16.944 2°52.727 16.799655 0.019236 0.117057  
2002-10-29 10:14:21 51°16.956 2°52.707 17.14391 0.019236 0.117055  
2002-10-29 10:14:26 51°16.969 2°52.686 17.14391 0.019236 0.117055  
2002-10-29 10:14:30 51°16.979 2°52.669 16.629363 0.019236 0.117053  
2002-10-29 10:14:36 51°16.993 2°52.644 16.98305 0.019236 0.117047  
2002-10-29 10:14:41 51°17.006 2°52.623 16.84574 0.019132 0.116414  
2002-10-29 10:14:46 51°17.018 2°52.602 16.758796 0.019132 0.11641  
2002-10-29 10:14:50 51°17.028 2°52.586 16.748705 0.019132 0.116404  
2002-10-29 10:14:56 51°17.045 2°52.564 16.748705 0.019132 0.116404  
2002-10-29 10:15:01 51°17.058 2°52.546 16.563365 0.019132 0.116398  
2002-10-29 10:15:06 51°17.072 2°52.528 16.912695 0.019132 0.116396  
2002-10-29 10:15:10 51°17.083 2°52.514 16.769013 0.019132 0.116394  
2002-10-29 10:15:16 51°17.099 2°52.492 16.959381 0.019132 0.116392  
2002-10-29 10:15:21 51°17.112 2°52.474 16.791138 0.019132 0.11639  
2002-10-29 10:15:26 51°17.126 2°52.455 16.791138 0.019132 0.11639  
2002-10-29 10:15:30 51°17.137 2°52.44 16.618361 0.019132 0.116388  
2002-10-29 10:15:36 51°17.153 2°52.418 16.721774 0.019132 0.116386  
2002-10-29 10:15:41 51°17.166 2°52.398 16.794697 0.019132 0.116384  
2002-10-29 10:15:46 51°17.179 2°52.379 17.011442 0.019132 0.116384  
2002-10-29 10:15:51 51°17.192 2°52.36 16.777109 0.019132 0.116384  
2002-10-29 10:15:56 51°17.205 2°52.341 16.777109 0.019132 0.116384  
2002-10-29 10:16:01 51°17.219 2°52.322 16.784188 0.019132 0.11638  
2002-10-29 10:16:06 51°17.233 2°52.305 16.764011 0.019028 0.115742  
2002-10-29 10:16:11 51°17.247 2°52.288 16.933208 0.019028 0.115738  
2002-10-29 10:16:16 51°17.262 2°52.271 16.837525 0.019028 0.115736  
2002-10-29 10:16:21 51°17.277 2°52.255 16.936634 0.019028 0.115734  
2002-10-29 10:16:26 51°17.291 2°52.238 16.936634 0.019028 0.115734  
2002-10-29 10:16:31 51°17.306 2°52.222 16.739206 0.019028 0.115732  
2002-10-29 10:16:36 51°17.32 2°52.206 16.817152 0.019028 0.115728  
2002-10-29 10:16:41 51°17.335 2°52.189 17.059411 0.019028 0.115724  
2002-10-29 10:16:46 51°17.349 2°52.173 16.783425 0.019028 0.115722  
2002-10-29 10:16:51 51°17.364 2°52.157 16.712695 0.019028 0.115718  
2002-10-29 10:16:56 51°17.379 2°52.14 16.712695 0.019028 0.115718  
2002-10-29 10:17:01 51°17.393 2°52.124 16.932955 0.019028 0.115716  
2002-10-29 10:17:06 51°17.408 2°52.108 17.004007 0.019028 0.115712  
2002-10-29 10:17:10 51°17.419 2°52.094 16.826979 0.019028 0.115712  
2002-10-29 10:17:16 51°17.436 2°52.073 17.012498 0.019028 0.115708  
2002-10-29 10:17:21 51°17.45 2°52.057 17.088616 0.019028 0.115704  
2002-10-29 10:17:26 51°17.464 2°52.039 17.088616 0.019028 0.115704  
2002-10-29 10:17:30 51°17.475 2°52.025 16.88058 0.019028 0.1157  
2002-10-29 10:17:36 51°17.491 2°52.002 16.882273 0.019028 0.115698  
2002-10-29 10:17:41 51°17.504 2°51.983 16.960733 0.019028 0.115696  
2002-10-29 10:17:46 51°17.518 2°51.964 17.106504 0.018924 0.115058  
2002-10-29 10:17:50 51°17.528 2°51.949 17.07756 0.018924 0.115056  
2002-10-29 10:17:56 51°17.544 2°51.927 17.07756 0.018924 0.115056  
2002-10-29 10:18:01 51°17.559 2°51.909 17.0489 0.018924 0.115052  
2002-10-29 10:18:06 51°17.573 2°51.893 17.023311 0.018924 0.11505  
2002-10-29 10:18:11 51°17.588 2°51.878 17.203078 0.018924 0.115044  
2002-10-29 10:18:16 51°17.603 2°51.864 16.893275 0.018924 0.115042  
2002-10-29 10:18:21 51°17.619 2°51.851 16.963988 0.018924 0.11504  
2002-10-29 10:18:26 51°17.635 2°51.839 16.963988 0.018924 0.11504  
2002-10-29 10:18:31 51°17.651 2°51.828 17.247252 0.018924 0.115036  
2002-10-29 10:18:36 51°17.667 2°51.817 17.076758 0.018924 0.115034  
2002-10-29 10:18:41 51°17.683 2°51.805 17.039189 0.018924 0.115032  
2002-10-29 10:18:46 51°17.699 2°51.793 16.982204 0.018924 0.11503  
2002-10-29 10:18:51 51°17.715 2°51.78 17.045227 0.018924 0.115026  
2002-10-29 10:18:56 51°17.73 2°51.767 17.045227 0.018924 0.115026  
2002-10-29 10:19:01 51°17.746 2°51.755 17.127424 0.018924 0.115022  
2002-10-29 10:19:06 51°17.762 2°51.743 16.997205 0.018924 0.11502  
2002-10-29 10:19:11 51°17.777 2°51.73 17.132062 0.018924 0.115016  
2002-10-29 10:19:16 51°17.793 2°51.717 17.147409 0.01882 0.114381  
2002-10-29 10:19:21 51°17.809 2°51.705 17.045607 0.01882 0.114377  
2002-10-29 10:19:26 51°17.825 2°51.692 17.045607 0.01882 0.114377  
2002-10-29 10:19:30 51°17.837 2°51.682 16.880199 0.01882 0.114375  
2002-10-29 10:19:36 51°17.856 2°51.667 16.949699 0.01882 0.114373  
2002-10-29 10:19:41 51°17.872 2°51.655 17.06186 0.01882 0.114369  
2002-10-29 10:19:46 51°17.889 2°51.644 16.999951 0.01882 0.114367  
2002-10-29 10:19:51 51°17.905 2°51.633 16.99712 0.01882 0.114361  
2002-10-29 10:19:56 51°17.921 2°51.621 16.99712 0.01882 0.114361  
2002-10-29 10:20:01 51°17.937 2°51.61 17.105871 0.01882 0.114359  
2002-10-29 10:20:06 51°17.954 2°51.599 17.015624 0.01882 0.114357  
2002-10-29 10:20:10 51°17.967 2°51.591 17.125188 0.01882 0.114355  
2002-10-29 10:20:16 51°17.987 2°51.58 16.991754 0.01882 0.114351  
2002-10-29 10:20:21 51°18.003 2°51.572 17.055992 0.01882 0.114347  
2002-10-29 10:20:26 51°18.02 2°51.563 17.055992 0.01882 0.114347  
2002-10-29 10:20:31 51°18.037 2°51.554 17.024071 0.01882 0.114343  
2002-10-29 10:20:36 51°18.053 2°51.543 17.024662 0.01882 0.114341  
2002-10-29 10:20:41 51°18.07 2°51.534 16.934477 0.01882 0.114339  
2002-10-29 10:20:46 51°18.087 2°51.524 17.081358 0.018716 0.113703  
2002-10-29 10:20:50 51°18.1 2°51.516 17.018538 0.01882 0.114332  
2002-10-29 10:20:56 51°18.12 2°51.505 17.018538 0.01882 0.114332  
2002-10-29 10:21:01 51°18.137 2°51.495 16.979669 0.018716 0.113699  
2002-10-29 10:21:05 51°18.15 2°51.488 17.161531 0.018716 0.113695  
2002-10-29 10:21:10 51°18.165 2°51.479 16.922931 0.018716 0.113693  
2002-10-29 10:21:16 51°18.183 2°51.468 17.032644 0.018716 0.113689  
2002-10-29 10:21:21 51°18.197 2°51.46 16.968046 0.018716 0.113687  
2002-10-29 10:21:26 51°18.21 2°51.451 16.968046 0.018716 0.113687  
2002-10-29 10:21:30 51°18.22 2°51.444 16.965425 0.018716 0.113685  
2002-10-29 10:21:36 51°18.235 2°51.435 17.096506 0.018716 0.113681  
2002-10-29 10:21:41 51°18.247 2°51.426 17.003035 0.018716 0.113683  
2002-10-29 10:21:46 51°18.258 2°51.417 17.261395 0.018716 0.113695  
2002-10-29 10:21:51 51°18.268 2°51.409 17.021072 0.018716 0.113683  
2002-10-29 10:21:56 51°18.279 2°51.4 17.021072 0.018716 0.113683  
2002-10-29 10:22:01 51°18.289 2°51.391 17.044931 0.018716 0.113677  
2002-10-29 10:22:06 51°18.298 2°51.382 17.090683 0.018716 0.113671  
2002-10-29 10:22:10 51°18.306 2°51.375 16.891329 0.018716 0.113673  
2002-10-29 10:22:16 51°18.317 2°51.365 16.860135 0.018716 0.113671  
2002-10-29 10:22:21 51°18.327 2°51.357 17.075872 0.018716 0.113667  
2002-10-29 10:22:26 51°18.336 2°51.349 17.075872 0.018716 0.113667  
2002-10-29 10:22:31 51°18.345 2°51.342 17.012667 0.018716 0.113664  
2002-10-29 10:22:36 51°18.354 2°51.334 17.297455 0.018716 0.113675  
2002-10-29 10:22:41 51°18.363 2°51.327 17.028252 0.018612 0.113043  
2002-10-29 10:22:46 51°18.372 2°51.321 17.067938 0.018612 0.113035  
2002-10-29 10:22:50 51°18.379 2°51.316 16.968257 0.018612 0.113027  
2002-10-29 10:22:56 51°18.39 2°51.309 16.968257 0.018612 0.113027  
2002-10-29 10:23:01 51°18.399 2°51.303 16.971977 0.018612 0.113025  
2002-10-29 10:23:06 51°18.407 2°51.297 17.323195 0.018612 0.113021  
2002-10-29 10:23:11 51°18.416 2°51.292 17.25626 0.018612 0.113031  
2002-10-29 10:23:16 51°18.425 2°51.286 17.021959 0.018612 0.113021  
2002-10-29 10:23:21 51°18.434 2°51.281 17.2334 0.018612 0.113019  
2002-10-29 10:23:26 51°18.443 2°51.275 17.2334 0.018612 0.113019  
2002-10-29 10:23:31 51°18.451 2°51.27 17.03598 0.018612 0.113012  
2002-10-29 10:23:36 51°18.46 2°51.264 16.999148 0.018612 0.113018  
2002-10-29 10:23:41 51°18.468 2°51.259 17.149517 0.018612 0.113016  
2002-10-29 10:23:46 51°18.476 2°51.253 17.225863 0.018612 0.11301  
2002-10-29 10:23:50 51°18.483 2°51.249 17.330217 0.018612 0.113004  
2002-10-29 10:23:56 51°18.49 2°51.243 17.330217 0.018612 0.113004  
2002-10-29 10:24:01 51°18.496 2°51.238 17.093426 0.018612 0.113  
2002-10-29 10:24:06 51°18.5 2°51.233 17.137122 0.018612 0.112992  
2002-10-29 10:24:11 51°18.502 2°51.228 17.278481 0.018612 0.112987  
2002-10-29 10:24:15 51°18.504 2°51.225 17.21782 0.018612 0.112979  
2002-10-29 10:24:21 51°18.505 2°51.222 17.224305 0.018612 0.112971  
2002-10-29 10:24:26 51°18.506 2°51.219 17.224305 0.018612 0.112971  
2002-10-29 10:24:30 51°18.506 2°51.219 17.229148 0.018612 0.112973  
2002-10-29 10:24:36 51°18.506 2°51.218 17.201309 0.018612 0.112973  
2002-10-29 10:24:41 51°18.506 2°51.217 17.341947 0.018612 0.112971  
2002-10-29 10:24:46 51°18.506 2°51.216 17.144964 0.018508 0.112335  
2002-10-29 10:24:51 51°18.506 2°51.215 17.250451 0.018508 0.112331  
2002-10-29 10:24:56 51°18.506 2°51.213 17.250451 0.018508 0.112331  
2002-10-29 10:25:01 51°18.506 2°51.212 17.561673 0.018508 0.112331  
2002-10-29 10:25:06 51°18.507 2°51.211 17.190144 0.018508 0.11233  
2002-10-29 10:25:10 51°18.507 2°51.21 17.262321 0.018508 0.112328  
2002-10-29 10:25:16 51°18.507 2°51.208 17.268045 0.018508 0.112324  
2002-10-29 10:25:21 51°18.507 2°51.207 17.267371 0.018508 0.11232  
2002-10-29 10:25:26 51°18.507 2°51.205 17.267371 0.018508 0.11232  
2002-10-29 10:25:30 51°18.508 2°51.204 17.34695 0.018508 0.11232  
2002-10-29 10:25:36 51°18.508 2°51.202 17.283319 0.018508 0.112322  
2002-10-29 10:25:41 51°18.509 2°51.2 17.391158 0.018508 0.112324  
2002-10-29 10:25:46 51°18.509 2°51.198 17.420936 0.018508 0.11232  
2002-10-29 10:25:50 51°18.509 2°51.197 17.194779 0.018508 0.112316  
2002-10-29 10:25:56 51°18.509 2°51.194 17.194779 0.018508 0.112316  
2002-10-29 10:26:01 51°18.51 2°51.192 17.23079 0.018508 0.11231  
2002-10-29 10:26:06 51°18.51 2°51.191 17.339677 0.018508 0.112308  
2002-10-29 10:26:11 51°18.51 2°51.189 17.381117 0.018508 0.112305  
2002-10-29 10:26:16 51°18.511 2°51.187 17.45217 0.018508 0.112295  
2002-10-29 10:26:21 51°18.511 2°51.185 17.281089 0.018508 0.112293  
2002-10-29 10:26:26 51°18.512 2°51.182 17.281089 0.018508 0.112293  
2002-10-29 10:26:31 51°18.512 2°51.18 17.324162 0.018404 0.111662  
2002-10-29 10:26:36 51°18.512 2°51.178 17.226705 0.018404 0.111662  
2002-10-29 10:26:41 51°18.512 2°51.176 17.471475 0.018404 0.111658  
2002-10-29 10:26:46 51°18.513 2°51.174 17.438864 0.018404 0.111656  
2002-10-29 10:26:50 51°18.513 2°51.172 17.30734 0.018404 0.111656  
2002-10-29 10:26:56 51°18.513 2°51.169 17.30734 0.018404 0.111656  
2002-10-29 10:27:01 51°18.514 2°51.167 17.343797 0.018404 0.11165  
2002-10-29 10:27:06 51°18.514 2°51.165 17.348001 0.018404 0.11165  
2002-10-29 10:27:11 51°18.514 2°51.162 17.562427 0.018404 0.111646  
2002-10-29 10:27:16 51°18.514 2°51.16 17.288116 0.018404 0.111644  
2002-10-29 10:27:21 51°18.515 2°51.158 17.59988 0.018404 0.111643  
2002-10-29 10:27:26 51°18.515 2°51.156 17.59988 0.018404 0.111643  
2002-10-29 10:27:30 51°18.515 2°51.153 17.193009 0.018404 0.111639  
2002-10-29 10:27:36 51°18.516 2°51.151 17.536315 0.018404 0.111637  
2002-10-29 10:27:41 51°18.516 2°51.148 17.614663 0.018404 0.111637  
2002-10-29 10:27:45 51°18.516 2°51.146 17.450617 0.018404 0.111635  
2002-10-29 10:27:51 51°18.516 2°51.143 17.522899 0.018404 0.111631  
2002-10-29 10:27:56 51°18.517 2°51.141 17.559326 0.018404 0.111631  
2002-10-29 10:28:01 51°18.517 2°51.138 17.559326 0.018404 0.111631  
2002-10-29 10:28:06 51°18.517 2°51.136 17.431895 0.018404 0.111627  
2002-10-29 10:28:12 51°18.518 2°51.133 17.327442 0.018404 0.111625  
2002-10-29 10:28:16 51°18.518 2°51.131 17.263415 0.018404 0.111625  
2002-10-29 10:28:21 51°18.518 2°51.129 17.61437 0.018404 0.111623  
2002-10-29 10:28:26 51°18.518 2°51.126 17.61437 0.018404 0.111623  
2002-10-29 10:28:31 51°18.519 2°51.124 17.583502 0.0183 0.110993  
2002-10-29 10:28:36 51°18.519 2°51.122 17.451583 0.0183 0.110989  
2002-10-29 10:28:41 51°18.519 2°51.119 17.385402 0.0183 0.110989  
2002-10-29 10:28:46 51°18.519 2°51.117 17.391746 0.0183 0.110987  
2002-10-29 10:28:51 51°18.519 2°51.114 17.358803 0.0183 0.110985  
2002-10-29 10:28:56 51°18.519 2°51.112 17.358803 0.0183 0.110985  
2002-10-29 10:29:01 51°18.52 2°51.11 17.29266 0.0183 0.110985  
2002-10-29 10:29:06 51°18.52 2°51.107 17.403801 0.0183 0.110983  
2002-10-29 10:29:10 51°18.52 2°51.105 17.612276 0.0183 0.110979  
2002-10-29 10:29:16 51°18.52 2°51.102 17.481125 0.0183 0.110976  
2002-10-29 10:29:21 51°18.52 2°51.1 17.451708 0.0183 0.110974  
2002-10-29 10:29:26 51°18.52 2°51.098 17.451708 0.0183 0.110974  
2002-10-29 10:29:31 51°18.52 2°51.096 17.486537 0.0183 0.110972  
2002-10-29 10:29:35 51°18.521 2°51.093 17.557985 0.0183 0.11097  
2002-10-29 10:29:41 51°18.52 2°51.09 17.568838 0.0183 0.110972  
2002-10-29 10:29:46 51°18.521 2°51.088 17.806053 0.0183 0.110972  
2002-10-29 10:29:51 51°18.521 2°51.086 17.538034 0.0183 0.110968  
2002-10-29 10:29:56 51°18.521 2°51.083 17.538034 0.0183 0.110968  
2002-10-29 10:30:01 51°18.522 2°51.081 17.511577 0.0183 0.110968  
2002-10-29 10:30:06 51°18.522 2°51.078 17.856228 0.0183 0.110966  
2002-10-29 10:30:11 51°18.522 2°51.076 17.689701 0.0183 0.110966  
2002-10-29 10:30:16 51°18.522 2°51.074 17.55635 0.0183 0.110964  
2002-10-29 10:30:21 51°18.522 2°51.071 17.527092 0.0183 0.110962  
2002-10-29 10:30:25 51°18.522 2°51.069 17.527092 0.0183 0.110962  
2002-10-29 10:30:31 51°18.522 2°51.066 17.734359 0.018196 0.110332  
2002-10-29 10:30:36 51°18.523 2°51.063 17.56557 0.018196 0.110332  
2002-10-29 10:30:41 51°18.523 2°51.061 17.505454 0.018196 0.11033  
2002-10-29 10:30:46 51°18.523 2°51.059 17.371873 0.018196 0.110328  
2002-10-29 10:30:51 51°18.523 2°51.056 17.581826 0.018196 0.110328  
2002-10-29 10:30:56 51°18.523 2°51.054 17.581826 0.018196 0.110328  
2002-10-29 10:31:01 51°18.523 2°51.052 17.448518 0.018196 0.110326  
2002-10-29 10:31:06 51°18.524 2°51.049 17.487963 0.018196 0.110324  
2002-10-29 10:31:11 51°18.524 2°51.047 17.627726 0.018196 0.110326  
2002-10-29 10:31:16 51°18.523 2°51.044 17.739542 0.018196 0.110324  
2002-10-29 10:31:21 51°18.524 2°51.041 17.531662 0.018196 0.110322  
2002-10-29 10:31:26 51°18.524 2°51.039 17.531662 0.018196 0.110322  
2002-10-29 10:31:30 51°18.524 2°51.036 17.329671 0.018196 0.110321  
2002-10-29 10:31:36 51°18.523 2°51.034 17.507258 0.018196 0.110321  
2002-10-29 10:31:41 51°18.524 2°51.031 17.512961 0.018196 0.110319  
2002-10-29 10:31:46 51°18.523 2°51.029 17.545663 0.018196 0.110315  
2002-10-29 10:31:51 51°18.523 2°51.027 17.484565 0.018196 0.110317  
2002-10-29 10:31:56 51°18.524 2°51.024 17.484565 0.018196 0.110317  
2002-10-29 10:32:01 51°18.524 2°51.021 17.524408 0.018196 0.110317  
2002-10-29 10:32:06 51°18.524 2°51.018 17.733691 0.018196 0.110315  
2002-10-29 10:32:10 51°18.524 2°51.017 17.704172 0.018196 0.110313  
2002-10-29 10:32:16 51°18.524 2°51.014 17.600969 0.018196 0.110311  
2002-10-29 10:32:21 51°18.524 2°51.011 17.505622 0.018196 0.110309  
2002-10-29 10:32:26 51°18.524 2°51.008 17.505622 0.018196 0.110309  
2002-10-29 10:32:31 51°18.524 2°51.006 17.685351 0.018092 0.109681  
2002-10-29 10:32:36 51°18.524 2°51.003 18.031012 0.018092 0.109679  
2002-10-29 10:32:41 51°18.524 2°51 17.414805 0.018092 0.109677  
2002-10-29 10:32:46 51°18.525 2°50.998 17.590749 0.018092 0.109677  
2002-10-29 10:32:50 51°18.525 2°50.996 17.695264 0.018092 0.109675  
2002-10-29 10:32:56 51°18.525 2°50.992 17.695264 0.018092 0.109675  
2002-10-29 10:33:01 51°18.525 2°50.99 17.633713 0.018092 0.109674  
2002-10-29 10:33:06 51°18.525 2°50.987 17.500925 0.018092 0.109674  
2002-10-29 10:33:11 51°18.525 2°50.985 17.541261 0.018092 0.109674  
2002-10-29 10:33:16 51°18.525 2°50.982 17.886932 0.018092 0.109672  
2002-10-29 10:33:21 51°18.525 2°50.979 17.519167 0.018092 0.10967  
2002-10-29 10:33:26 51°18.524 2°50.977 17.519167 0.018092 0.10967  
2002-10-29 10:33:31 51°18.524 2°50.974 17.62132 0.018092 0.10967  
2002-10-29 10:33:36 51°18.525 2°50.971 17.661001 0.018092 0.109666  
2002-10-29 10:33:41 51°18.524 2°50.968 17.769965 0.018092 0.109666  
2002-10-29 10:33:46 51°18.523 2°50.964 17.497905 0.018092 0.109666  
2002-10-29 10:33:50 51°18.522 2°50.96 17.739668 0.018092 0.109664  
2002-10-29 10:33:56 51°18.52 2°50.951 17.739668 0.018092 0.109664  
2002-10-29 10:34:01 51°18.518 2°50.943 17.675562 0.018092 0.109664  
2002-10-29 10:34:06 51°18.516 2°50.931 17.644345 0.018092 0.109662  
2002-10-29 10:34:10 51°18.513 2°50.921 17.719226 0.018092 0.109661  
2002-10-29 10:34:16 51°18.511 2°50.903 17.784544 0.018092 0.109659  
2002-10-29 10:34:21 51°18.509 2°50.887 17.854558 0.017989 0.109029  
2002-10-29 10:34:26 51°18.509 2°50.869 17.854558 0.017989 0.109029  
2002-10-29 10:34:31 51°18.51 2°50.85 17.997873 0.017989 0.109029  
2002-10-29 10:34:35 51°18.512 2°50.834 17.777986 0.017989 0.10902  
2002-10-29 10:34:41 51°18.517 2°50.811 17.792564 0.017989 0.109016  
2002-10-29 10:34:46 51°18.522 2°50.792 17.665688 0.017989 0.10901  
2002-10-29 10:34:50 51°18.528 2°50.778 17.778404 0.017989 0.109005  
2002-10-29 10:34:56 51°18.538 2°50.757 17.778404 0.017989 0.109005  
2002-10-29 10:35:01 51°18.547 2°50.742 17.830644 0.017989 0.108997  
2002-10-29 10:35:06 51°18.558 2°50.73 17.839368 0.017989 0.108992  
2002-10-29 10:35:10 51°18.567 2°50.721 17.70572 0.017989 0.108994  
2002-10-29 10:35:16 51°18.582 2°50.711 17.879674 0.017989 0.108996  
2002-10-29 10:35:21 51°18.595 2°50.705 17.818913 0.017989 0.108996  
2002-10-29 10:35:26 51°18.609 2°50.703 17.818913 0.017989 0.108996  
2002-10-29 10:35:30 51°18.619 2°50.703 17.924627 0.017989 0.108997  
2002-10-29 10:35:36 51°18.635 2°50.706 17.862153 0.017989 0.108999  
2002-10-29 10:35:41 51°18.648 2°50.712 17.762695 0.017989 0.109001  
2002-10-29 10:35:46 51°18.66 2°50.72 17.801459 0.017989 0.109001  
2002-10-29 10:35:51 51°18.672 2°50.731 17.909868 0.017989 0.109001  
2002-10-29 10:35:56 51°18.681 2°50.744 17.909868 0.017989 0.109001  
2002-10-29 10:36:01 51°18.69 2°50.759 18.014819 0.017989 0.109001  
2002-10-29 10:36:06 51°18.698 2°50.776 17.986878 0.017989 0.109001  
2002-10-29 10:36:10 51°18.703 2°50.79 17.581156 0.017989 0.109001  
2002-10-29 10:36:16 51°18.709 2°50.813 17.756761 0.017989 0.109001  
2002-10-29 10:36:21 51°18.711 2°50.833 17.862153 0.017885 0.10837  
2002-10-29 10:36:26 51°18.714 2°50.854 17.862153 0.017885 0.10837  
2002-10-29 10:36:31 51°18.716 2°50.874 17.730179 0.017989 0.108996  
2002-10-29 10:36:36 51°18.717 2°50.895 17.769422 0.017885 0.108368  
2002-10-29 10:36:41 51°18.719 2°50.917 17.87834 0.017885 0.108364  
2002-10-29 10:36:46 51°18.722 2°50.938 18.087138 0.017885 0.108366  
2002-10-29 10:36:50 51°18.724 2°50.955 17.711407 0.017885 0.10837  
2002-10-29 10:36:56 51°18.728 2°50.981 17.711407 0.017885 0.10837  
2002-10-29 10:37:01 51°18.732 2°51.002 17.717177 0.017885 0.108361  
2002-10-29 10:37:06 51°18.736 2°51.023 17.825134 0.017885 0.108363  
2002-10-29 10:37:10 51°18.74 2°51.039 17.721358 0.017885 0.108372  
2002-10-29 10:37:16 51°18.746 2°51.064 17.629987 0.017885 0.108372  
2002-10-29 10:37:21 51°18.751 2°51.085 17.975924 0.017885 0.10837  
2002-10-29 10:37:26 51°18.756 2°51.106 17.87592 0.017885 0.10837  
2002-10-29 10:37:30 51°18.76 2°51.123 17.87592 0.017885 0.10837  
2002-10-29 10:37:36 51°18.765 2°51.148 17.878548 0.017885 0.108368  
2002-10-29 10:37:41 51°18.77 2°51.17 17.918665 0.017885 0.10837  
2002-10-29 10:37:46 51°18.775 2°51.191 17.875545 0.017885 0.108368  
2002-10-29 10:37:50 51°18.779 2°51.209 17.790308 0.017885 0.10837  
2002-10-29 10:37:56 51°18.785 2°51.237 17.790308 0.017885 0.10837  
2002-10-29 10:38:01 51°18.791 2°51.261 18.034217 0.017885 0.10837  
2002-10-29 10:38:06 51°18.796 2°51.286 17.937132 0.017885 0.108366  
2002-10-29 10:38:10 51°18.801 2°51.306 17.669663 0.017885 0.108363  
2002-10-29 10:38:16 51°18.808 2°51.338 18.022354 0.017885 0.108361  
2002-10-29 10:38:21 51°18.814 2°51.364 17.718222 0.017885 0.108359  
2002-10-29 10:38:26 51°18.82 2°51.391 17.718222 0.017885 0.108359  
2002-10-29 10:38:30 51°18.825 2°51.412 17.858773 0.017885 0.108361  
2002-10-29 10:38:36 51°18.832 2°51.445 17.725581 0.017885 0.108363  
2002-10-29 10:38:41 51°18.838 2°51.472 17.852973 0.017781 0.107739  
2002-10-29 10:38:46 51°18.844 2°51.499 17.83127 0.017781 0.107737  
2002-10-29 10:38:51 51°18.85 2°51.526 17.939091 0.017781 0.107741  
2002-10-29 10:38:56 51°18.856 2°51.554 17.939091 0.017781 0.107741  
2002-10-29 10:39:01 51°18.862 2°51.582 17.937882 0.017781 0.107741  
2002-10-29 10:39:06 51°18.868 2°51.609 17.984379 0.017781 0.107737  
2002-10-29 10:39:10 51°18.873 2°51.63 17.818997 0.017781 0.107737  
2002-10-29 10:39:16 51°18.88 2°51.663 17.823088 0.017781 0.107739  
2002-10-29 10:39:21 51°18.886 2°51.691 17.790475 0.017781 0.107743  
2002-10-29 10:39:26 51°18.892 2°51.719 17.892646 0.017781 0.107743  
2002-10-29 10:39:31 51°18.899 2°51.746 17.892646 0.017781 0.107743  
2002-10-29 10:39:36 51°18.905 2°51.773 17.697105 0.017781 0.107745  
2002-10-29 10:39:41 51°18.911 2°51.801 17.904489 0.017781 0.107746  
2002-10-29 10:39:46 51°18.917 2°51.828 18.110881 0.017781 0.107746  
2002-10-29 10:39:50 51°18.922 2°51.85 18.01332 0.017781 0.107746  
2002-10-29 10:39:56 51°18.929 2°51.883 17.916414 0.017781 0.107748  
2002-10-29 10:40:01 51°18.935 2°51.911 17.916414 0.017781 0.107748  
2002-10-29 10:40:06 51°18.941 2°51.938 17.853807 0.017781 0.10775  
2002-10-29 10:40:10 51°18.946 2°51.96 17.993375 0.017781 0.10775  
2002-10-29 10:40:16 51°18.953 2°51.993 17.890394 0.017781 0.107752  
2002-10-29 10:40:21 51°18.959 2°52.021 17.901862 0.017781 0.107754  
2002-10-29 10:40:26 51°18.965 2°52.048 17.901862 0.017781 0.107754  
2002-10-29 10:40:31 51°18.971 2°52.076 17.903572 0.017781 0.107754  
2002-10-29 10:40:36 51°18.977 2°52.103 17.908534 0.017781 0.107756  
2002-10-29 10:40:41 51°18.983 2°52.131 17.949884 0.017677 0.107128  
2002-10-29 10:40:46 51°18.989 2°52.158 18.05544 0.017677 0.10713  
2002-10-29 10:40:50 51°18.994 2°52.18 18.054899 0.017677 0.107132  
2002-10-29 10:40:56 51°19.001 2°52.213 18.054899 0.017677 0.107132  
2002-10-29 10:41:01 51°19.007 2°52.24 17.92842 0.017677 0.107132  
2002-10-29 10:41:06 51°19.014 2°52.267 17.932255 0.017677 0.107134  
2002-10-29 10:41:10 51°19.018 2°52.289 18.103813 0.017677 0.107137  
2002-10-29 10:41:16 51°19.025 2°52.322 17.939382 0.017677 0.107137  
2002-10-29 10:41:21 51°19.031 2°52.35 17.873083 0.017677 0.107141  
2002-10-29 10:41:26 51°19.037 2°52.377 17.873083 0.017677 0.107141  
2002-10-29 10:41:31 51°19.043 2°52.405 18.152651 0.017677 0.107141  
2002-10-29 10:41:36 51°19.049 2°52.432 17.951343 0.017677 0.107141  
2002-10-29 10:41:41 51°19.056 2°52.459 17.948801 0.017677 0.107147  
2002-10-29 10:41:46 51°19.061 2°52.487 17.88956 0.017677 0.107147  
2002-10-29 10:41:50 51°19.067 2°52.509 18.066216 0.017677 0.107148  
2002-10-29 10:41:56 51°19.074 2°52.542 18.066216 0.017677 0.107148  
2002-10-29 10:42:01 51°19.08 2°52.569 18.103148 0.017677 0.107148  
2002-10-29 10:42:06 51°19.086 2°52.596 17.765619 0.017677 0.107147  
2002-10-29 10:42:11 51°19.092 2°52.623 18.011905 0.017677 0.107148  
2002-10-29 10:42:16 51°19.098 2°52.65 18.114623 0.017677 0.107152  
2002-10-29 10:42:21 51°19.104 2°52.678 18.188499 0.017677 0.107152  
2002-10-29 10:42:26 51°19.11 2°52.705 18.188499 0.017677 0.107152  
2002-10-29 10:42:30 51°19.115 2°52.727 17.81503 0.017677 0.107157  
2002-10-29 10:42:36 51°19.122 2°52.76 18.163204 0.017677 0.107159  
2002-10-29 10:42:41 51°19.128 2°52.788 18.141598 0.017677 0.107159  
2002-10-29 10:42:46 51°19.134 2°52.815 18.070417 0.017677 0.107161  
2002-10-29 10:42:50 51°19.139 2°52.837 18.039045 0.017573 0.106536  
2002-10-29 10:42:56 51°19.145 2°52.87 18.039045 0.017573 0.106536  
2002-10-29 10:43:01 51°19.151 2°52.898 17.973758 0.017573 0.106539  
2002-10-29 10:43:06 51°19.157 2°52.925 18.00899 0.017573 0.106546  
2002-10-29 10:43:11 51°19.163 2°52.953 17.881927 0.017573 0.106546  
2002-10-29 10:43:16 51°19.169 2°52.98 17.918374 0.017573 0.106545  
2002-10-29 10:43:21 51°19.175 2°53.008 18.129088 0.017573 0.106546  
2002-10-29 10:43:26 51°19.181 2°53.035 18.129088 0.017573 0.106546  
2002-10-29 10:43:31 51°19.187 2°53.062 18.031179 0.017573 0.106548  
2002-10-29 10:43:36 51°19.193 2°53.09 18.03251 0.017573 0.106552  
2002-10-29 10:43:41 51°19.199 2°53.117 18.105185 0.017573 0.106552  
2002-10-29 10:43:46 51°19.205 2°53.144 18.146127 0.017573 0.106554  
2002-10-29 10:43:50 51°19.21 2°53.166 18.013612 0.017573 0.106554  
2002-10-29 10:43:56 51°19.217 2°53.199 18.013612 0.017573 0.106554  
2002-10-29 10:44:01 51°19.223 2°53.226 18.086847 0.017573 0.106559  
2002-10-29 10:44:06 51°19.229 2°53.254 18.019607 0.017573 0.106561  
2002-10-29 10:44:11 51°19.235 2°53.281 17.926419 0.017573 0.106563  
2002-10-29 10:44:15 51°19.239 2°53.303 18.196472 0.017573 0.106565  
2002-10-29 10:44:21 51°19.247 2°53.336 18.137193 0.017573 0.106561  
2002-10-29 10:44:26 51°19.253 2°53.363 18.137193 0.017573 0.106561  
2002-10-29 10:44:30 51°19.258 2°53.385 18.108095 0.017573 0.106565  
2002-10-29 10:44:36 51°19.265 2°53.418 18.043456 0.017573 0.106568  
2002-10-29 10:44:41 51°19.271 2°53.445 17.90795 0.017573 0.10657  
2002-10-29 10:44:46 51°19.277 2°53.472 18.186464 0.017573 0.106574  
2002-10-29 10:44:50 51°19.281 2°53.494 18.021938 0.017573 0.106577  
2002-10-29 10:44:56 51°19.289 2°53.527 18.094457 0.017469 0.105952  
2002-10-29 10:45:01 51°19.295 2°53.554 18.094457 0.017469 0.105952  
2002-10-29 10:45:06 51°19.301 2°53.582 17.997956 0.017469 0.105953  
2002-10-29 10:45:11 51°19.307 2°53.609 18.134658 0.017469 0.105957  
2002-10-29 10:45:16 51°19.313 2°53.636 18.242547 0.017469 0.105959  
2002-10-29 10:45:21 51°19.319 2°53.664 18.211543 0.017469 0.105961  
2002-10-29 10:45:26 51°19.324 2°53.691 18.211543 0.017469 0.105961  
2002-10-29 10:45:30 51°19.329 2°53.713 18.21063 0.017469 0.105964  
2002-10-29 10:45:36 51°19.336 2°53.746 18.011239 0.017469 0.105966  
2002-10-29 10:45:41 51°19.343 2°53.773 18.251717 0.017469 0.10597  
2002-10-29 10:45:46 51°19.349 2°53.8 18.124973 0.017469 0.10597  
2002-10-29 10:45:50 51°19.354 2°53.822 18.196762 0.017469 0.105971  
2002-10-29 10:45:56 51°19.361 2°53.854 18.196762 0.017469 0.105971  
2002-10-29 10:46:01 51°19.367 2°53.882 18.096994 0.017469 0.105975  
2002-10-29 10:46:06 51°19.373 2°53.909 18.139603 0.017469 0.105977  
2002-10-29 10:46:10 51°19.378 2°53.931 18.380549 0.017469 0.105979  
2002-10-29 10:46:16 51°19.385 2°53.963 18.210588 0.017469 0.10598  
2002-10-29 10:46:21 51°19.391 2°53.991 18.217023 0.017469 0.105984  
2002-10-29 10:46:26 51°19.397 2°54.018 18.217023 0.017469 0.105984  
2002-10-29 10:46:31 51°19.403 2°54.045 18.520964 0.017469 0.105986  
2002-10-29 10:46:36 51°19.409 2°54.072 18.362242 0.017469 0.105988  
2002-10-29 10:46:41 51°19.415 2°54.1 18.164076 0.017469 0.105991  
2002-10-29 10:46:46 51°19.421 2°54.127 18.434986 0.017469 0.105993  
2002-10-29 10:46:50 51°19.426 2°54.149 18.238273 0.017469 0.105995  
2002-10-29 10:46:56 51°19.433 2°54.182 18.377774 0.017469 0.105997  
2002-10-29 10:47:01 51°19.439 2°54.209 18.377774 0.017469 0.105997  
2002-10-29 10:47:06 51°19.445 2°54.236 18.248398 0.017365 0.105371  
2002-10-29 10:47:10 51°19.45 2°54.258 18.183847 0.017365 0.105374  
2002-10-29 10:47:16 51°19.457 2°54.291 18.145005 0.017365 0.105376  
2002-10-29 10:47:21 51°19.463 2°54.318 18.292822 0.017365 0.105378  
2002-10-29 10:47:26 51°19.469 2°54.345 18.292822 0.017365 0.105378  
2002-10-29 10:47:31 51°19.475 2°54.373 18.400176 0.017365 0.10538  
2002-10-29 10:47:36 51°19.481 2°54.4 18.366136 0.017365 0.105382  
2002-10-29 10:47:41 51°19.487 2°54.428 18.204194 0.017365 0.105383  
2002-10-29 10:47:46 51°19.493 2°54.455 18.344676 0.017365 0.105385  
2002-10-29 10:47:50 51°19.497 2°54.477 18.278017 0.017365 0.105387  
2002-10-29 10:47:56 51°19.505 2°54.509 18.278017 0.017365 0.105387  
2002-10-29 10:48:01 51°19.511 2°54.536 18.179487 0.017365 0.10539  
2002-10-29 10:48:06 51°19.517 2°54.564 18.182352 0.017365 0.105396  
2002-10-29 10:48:11 51°19.523 2°54.591 18.221215 0.017365 0.105396  
2002-10-29 10:48:16 51°19.529 2°54.618 18.088718 0.017365 0.105398  
2002-10-29 10:48:21 51°19.535 2°54.646 18.320266 0.017365 0.105399  
2002-10-29 10:48:26 51°19.54 2°54.674 18.095497 0.017365 0.105394  
2002-10-29 10:48:30 51°19.545 2°54.696 18.095497 0.017365 0.105394  
2002-10-29 10:48:36 51°19.552 2°54.729 18.171055 0.017365 0.105398  
2002-10-29 10:48:41 51°19.558 2°54.756 18.276441 0.017365 0.105399  
2002-10-29 10:48:46 51°19.564 2°54.783 18.483261 0.017365 0.105403  
2002-10-29 10:48:50 51°19.568 2°54.805 18.351139 0.017365 0.105407  
2002-10-29 10:48:56 51°19.576 2°54.838 18.351139 0.017365 0.105407  
2002-10-29 10:49:01 51°19.582 2°54.864 18.388293 0.017261 0.104781  
2002-10-29 10:49:06 51°19.587 2°54.892 18.171221 0.017365 0.105412  
2002-10-29 10:49:11 51°19.594 2°54.919 18.364893 0.017261 0.104786  
2002-10-29 10:49:16 51°19.599 2°54.946 18.232048 0.017261 0.104784  
2002-10-29 10:49:21 51°19.605 2°54.973 18.378064 0.017261 0.104786  
2002-10-29 10:49:26 51°19.611 2°55.001 18.378064 0.017261 0.104786  
2002-10-29 10:49:29 51°19.614 2°55.017 18.275238 0.017261 0.104786  
2002-10-29 10:49:36 51°19.622 2°55.055 18.412388 0.017261 0.104795  
2002-10-29 10:49:41 51°19.628 2°55.082 18.284279 0.017261 0.104798  
2002-10-29 10:49:46 51°19.634 2°55.109 18.356691 0.017261 0.104802  
2002-10-29 10:49:50 51°19.639 2°55.13 18.526874 0.017261 0.104804  
2002-10-29 10:49:56 51°19.647 2°55.163 18.226154 0.017261 0.104806  
2002-10-29 10:50:01 51°19.653 2°55.189 18.226154 0.017261 0.104806